Regional Weather Roundup
Issued by NWS

Home | Current Version | Previous Version | Text Only | Print | Product List | Glossary On
Versions: 1 2 3 4 5 6 7 8 9 10 11 12 13 14 15 16 17 18 19 20 21 22 23 24 25 26 27 28 29 30 31 32 33 34 35 36 37 38 39 40 41 42 43 44 45 46 47 48 49 50
000
ASUS43 KDMX 270306
RWRIA

WEATHER ROUNDUP FOR IOWA
NATIONAL WEATHER SERVICE DES MOINES IA
1000 PM CDT WED APR 26 2017

NOTE: "FAIR" INDICATES FEW OR NO CLOUDS BELOW 12,000 FEET WITH NO
SIGNIFICANT WEATHER AND/OR OBSTRUCTIONS TO VISIBILITY.

* - THESE STATIONS ARE NOT NWS STATIONS...THUS NOT UNDER NWS
QUALITY CONTROL.  THEY ALSO DO NOT REPORT WEATHER SUCH
AS PRECIPITATION OR FOG.

IAZ001>003-012>014-020>022-031>034-043>046-270400-
   NORTHWEST IOWA

CITY           SKY/WX    TMP DP  RH WIND       PRES   REMARKS
CARROLL *      CLOUDY    37  36  93 NW14G21   29.65R WCI  29
CHEROKEE *     CLOUDY    34  32  92 N10       29.67R WCI  26
DENISON *      CLOUDY    37  34  87 N6G15     29.68R WCI  33
LE MARS *      CLOUDY    36  30  80 N10       29.70R WCI  28
ORANGE CITY *  CLOUDY    34  30  86 N9        29.67R WCI  26
SHELDON *      CLOUDY    32  30  93 NW15      29.66R WCI  22
SIOUX CITY     CLOUDY    37  29  72 N20G25    29.70R WCI  27
SPENCER        CLOUDY    33  30  88 NW15      29.65R WCI  23
STORM LAKE *   CLOUDY    34  30  86 NW15      29.63S WCI  24
$$

IAZ055>058-069>071-079>083-090>094-270400-
   SOUTHWEST IOWA

CITY           SKY/WX    TMP DP  RH WIND       PRES   REMARKS
ATLANTIC *     CLOUDY    39  32  75 N15G23    29.67R WCI  31
AUDUBON *      CLOUDY    37  34  87 NW14G20   29.66R WCI  29
CLARINDA *       N/A     43  34  70 N15       29.70R
COUNCIL BLFS * CLOUDY    41  34  75 NW9       29.69R
CRESTON *      CLOUDY    39  36  87 NW15G24   29.65R WCI  31
HARLAN  *      CLOUDY    39  34  81 N10       29.71R WCI  32
LAMONI         CLOUDY    42  36  79 NW17G24   29.61R
RED OAK *      CLOUDY    41  32  70 NW15G22   29.69R
SHENANDOAH *   CLOUDY    43  34  70 NW10      29.70R
$$

IAZ047>049-059>061-072>074-084-270400-
   CENTRAL IOWA

CITY           SKY/WX    TMP DP  RH WIND       PRES   REMARKS
AMES           CLOUDY    41  36  82 N18       29.60R
ANKENY *       CLOUDY    43  36  75 NW15      29.62R
BOONE *        CLOUDY    39  36  87 NW13      29.60R WCI  32
CHARITON *     CLOUDY    43  37  81 NW15      29.59R
DES MOINES     CLOUDY    43  36  76 NW16G24   29.61R
GRINNELL*      CLOUDY    42  37  81 NW15G23   29.57R
KNOXVILLE *    CLOUDY    45  37  76 NW12      29.57R
MARSHALLTOWN   CLOUDY    42  36  79 NW22      29.57R
NEWTON *       CLOUDY    43  37  81 NW18      29.56R
PELLA *        CLOUDY    44  37  79 NW15G23   29.59R
PERRY *        CLOUDY    40  36  88 NW14G20   29.63R WCI  32
$$

IAZ004>006-015-016-023>025-035-036-270400-
   NORTH CENTRAL IOWA

CITY           SKY/WX    TMP DP  RH WIND       PRES   REMARKS
ALGONA *       MIX PCPN  36  34  93 NW14G21   29.61F WCI  27
CLARION *      CLOUDY    36  36 100 NW18      29.60S FOG     WCI  25
ESTHERVILLE    CLOUDY    32  30  92 NW17      29.62F WCI  21
FORT DODGE *   CLOUDY    37  30  75 NW6       29.63S WCI  33
MASON CITY     CLOUDY    38  33  82 NW14      29.59R WCI  30
FOREST CITY *  LGT RAIN  36  32  87 NW12      29.59S WCI  27
WEBSTER CITY * CLOUDY    37  34  87 NW18G25   29.59S WCI  27
IOWA FALLS *   CLOUDY    40  35  81 NW16G25   29.58F WCI  32
$$

IAZ007>011-017>019-026>030-037>042-050>054-066-270400-
   NORTHEAST IOWA

CITY           SKY/WX    TMP DP  RH WIND       PRES   REMARKS
CEDAR RAPIDS   LGT RAIN  44  42  93 N12       29.52R
CHARLES CITY * CLOUDY    39  36  87 NW15      29.55F WCI  31
CLINTON *      LGT RAIN  48  45  89 NW12      29.49R
DECORAH *      CLOUDY    39  37  93 NW10G17   29.52S WCI  32
DUBUQUE        CLOUDY    45  40  82 N12       29.49S
MONTICELLO *   CLOUDY    45  39  81 NW13G21   29.51R
OELWEIN *      CLOUDY    41  41 100 NW15G21   29.53S
WATERLOO       CLOUDY    41  37  86 NW14      29.53F
$$

IAZ064-065-067-068-078-270400-
   EAST CENTRAL IOWA

CITY           SKY/WX    TMP DP  RH WIND       PRES   REMARKS
DAVENPORT      CLOUDY    48  43  82 N13       29.50F
IOWA CITY      LGT RAIN  47  40  76 NW14      29.54R
MT. PLEASANT * DRIZZLE   46  42  85 NW9       29.53R
MUSCATINE *    CLOUDY    48  41  76 NW9G15    29.52R
QUAD CITIES    CLOUDY    50  44  80 NW8       29.50R
$$

IAZ062-063-075>077-085>089-095>099-270400-
   SOUTHEAST IOWA

CITY           SKY/WX    TMP DP  RH WIND       PRES   REMARKS
BURLINGTON     RAIN      48  48 100 NW7       29.50R FOG
FAIRFIELD *    CLOUDY    45  41  87 NW14      29.55R
FORT MADISON * LGT RAIN  46  46 100 NW14      29.52R
KEOKUK *       LGT RAIN  48  45  87 N10G17    29.52R
OSKALOOSA *    LGT RAIN  44  39  83 NW15      29.57R
CENTERVILLE *  LGT RAIN  45  41  87 NW10      29.59R
OTTUMWA        LGT RAIN  44  41  89 NW16      29.56R
WASHINGTON *   CLOUDY    45  43  93 NW12G18   29.54R
$$

ABBREVIATIONS USED IN REMARKS
   TC - TEMPERATURES IN CELSIUS
  WCI - WIND CHILL INDEX
   HX - HEAT INDEX
  VSB - VISIBILITY
$$




USA.gov is the U.S. government's official web portal to all federal, state and local government web resources and services.